Weather History for Pirassununga, Brazil

Change the Weather History Date:

Thursday, June 13, 2013

  Actual Average Record
Temperature  
Mean Temperature 68 °F -  
Max Temperature 78 °F 75 °F 86 °F (2000)
Min Temperature 57 °F 50 °F 48 °F (1998)
Cooling Degree Days 2    
Growing Degree Days 18 (Base 50)    
Moisture  
Dew Point 61 °F    
Average Humidity 81    
Maximum Humidity 100    
Minimum Humidity 54    
Precipitation  
Precipitation 0.00 in - - ()
Sea Level Pressure  
Sea Level Pressure 30.12 in    
Wind  
Wind Speed 3 mph ()    
Max Wind Speed 7 mph    
Max Gust Speed -    
Visibility 4.1 miles    
Events Fog    
Averages and records for this station are not official NWS values.
T = Trace of Precipitation, MM = Missing Value Source: Averaged Metar Reports

Daily Weather History Graph

Daily Weather History Graph

Search for Another Location

Airport:

Trip Planner

Search our weather history database for the weather conditions in past years. The results will help you decide how hot, cold, wet, or windy it might be!

Date:

Astronomy

Jun. 13, 2013 Rise Set
Actual Time 6:45 AM BRT 5:33 PM BRT
Civil Twilight 6:21 AM BRT 5:57 PM BRT
Nautical Twilight 5:53 AM BRT 6:25 PM BRT
Astronomical Twilight 5:25 AM BRT 6:53 PM BRT
Moon 10:07 AM BRT (6/13) 9:54 PM BRT (6/13)
Length of Visible Light 11h 36m
Length of Day
10h 48m
Waxing Crescent, 21% of the Moon is Illuminated
Jun 13
Waxing Crescent
Jun 16
First Quarter
Jun 23
Full
Jun 30
Last Quarter
Jul 8
New

Hourly Weather History & Observations

Time (BRT) Temp. Dew Point Humidity Pressure Visibility Wind Dir Wind Speed Gust Speed Precip Events Conditions
6:00 AM - 57.2 °F N/A% 30.15 in 0.5 mi East 3.5 mph - N/A Fog Fog
7:00 AM - 57.2 °F N/A% 30.15 in 0.2 mi East 3.5 mph - N/A Fog Fog
8:00 AM 57.2 °F 57.2 °F 100% 30.15 in 0.1 mi SSE 2.3 mph - N/A Fog Fog
9:00 AM 59.0 °F 59.0 °F 100% - 0.2 mi South 2.3 mph - N/A Fog Fog
9:25 AM 60.8 °F 60.8 °F 100% 30.18 in 1.6 mi South 1.2 mph - N/A   Mostly Cloudy
9:45 AM 64.4 °F 62.6 °F 94% 30.18 in 3.7 mi SE 2.3 mph - N/A   Scattered Clouds
10:00 AM 64.4 °F 64.4 °F 100% 30.21 in 6.2 mi South 2.3 mph - N/A   Partly Cloudy
11:00 AM 71.6 °F 62.6 °F 73% 30.18 in - ESE 2.3 mph - N/A   Clear
12:00 PM 75.2 °F 60.8 °F 61% 30.15 in 6.2 mi ESE 3.5 mph - N/A   Partly Cloudy
1:00 PM 78.8 °F 60.8 °F 54% 30.12 in 6.2 mi East 2.3 mph - N/A   Partly Cloudy
2:00 PM 78.8 °F 62.6 °F 57% 30.09 in 6.2 mi South 3.5 mph - N/A   Scattered Clouds
3:00 PM 78.8 °F 60.8 °F 54% 30.06 in 6.2 mi ESE 4.6 mph - N/A   Scattered Clouds
4:00 PM 77.0 °F 60.8 °F 57% 30.06 in 6.2 mi SSE 4.6 mph - N/A   Scattered Clouds
5:00 PM 73.4 °F 62.6 °F 69% 30.06 in 6.2 mi SE 4.6 mph - N/A   Scattered Clouds
6:00 PM 69.8 °F 62.6 °F 78% 30.09 in 6.2 mi South 5.8 mph - N/A   Scattered Clouds
7:00 PM 68.0 °F 62.6 °F 83% 30.09 in 6.2 mi SSE 6.9 mph - N/A   Partly Cloudy
8:00 PM 66.2 °F 62.6 °F 88% 30.09 in 6.2 mi Calm Calm - N/A   Partly Cloudy
9:00 PM 62.6 °F 62.6 °F 100% 30.09 in 4.3 mi SSE 2.3 mph - N/A   Unknown
10:00 PM 62.6 °F 62.6 °F 100% 30.12 in 3.1 mi SSW 4.6 mph - N/A   Mist
11:00 PM 62.6 °F 60.8 °F 94% 30.12 in 1.9 mi WSW 1.2 mph - N/A   Mist